Location: G�rlitz
(51.1670°N, 15.0000°E)
Time: 17:06:05
(UTC+01:00)

Tiangong - Visible Passes

Search period start: 14 February 2026 00:00
Search period end: 24 February 2026 00:00
Orbit: 386 x 392 km, 41.5° (Epoch: 13 February)

Date Brightness Start Highest point End Pass type
(mag) Time Alt. Az. Time Alt. Az. Time Alt. Az.
14 Feb 0.2 18:58:06 10° SSW 18:59:55 14° S 19:00:16 14° SSE visible
15 Feb 0.4 18:00:19 10° SSW 18:01:49 13° S 18:03:19 10° SE visible
15 Feb 0.6 19:36:12 10° SW 19:37:04 13° SSW 19:37:04 13° SSW visible
16 Feb 0.3 18:37:58 10° SW 18:39:50 15° S 18:41:33 11° SSE visible
17 Feb 0.5 19:16:28 10° SW 19:17:50 12° SSW 19:18:19 12° S visible
18 Feb 0.5 18:17:55 10° SW 18:19:39 14° S 18:21:24 10° SSE visible
20 Feb 0.7 17:58:04 10° SW 17:59:20 12° SSW 18:00:36 10° S visible
